TimePST,TemperatureF,Dew PointF,Humidity,Sea Level PressureIn,VisibilityMPH,Wind Direction,Wind SpeedMPH,Gust SpeedMPH,PrecipitationIn,Events,Conditions,WindDirDegrees,DateUTC
12:43 AM,42.8,42.8,100,30.04,7.0,Calm,Calm,-,N/A,Rain,Light Rain,0,2013-11-05 08:43:00
12:48 AM,42.8,42.8,100,30.04,6.0,Calm,Calm,-,N/A,Rain,Light Rain,0,2013-11-05 08:48:00
12:58 AM,43.2,43.0,99,30.06,6.0,North,2.3,-,0.03,Rain,Light Rain,360,2013-11-05 08:58:00
12:59 AM,42.8,42.8,100,30.04,6.0,North,2.3,-,N/A,Rain,Rain,360,2013-11-05 08:59:00
1:12 AM,42.8,42.8,100,30.04,10.0,North,2.3,-,N/A,,Overcast,350,2013-11-05 09:12:00
1:17 AM,42.8,42.8,100,30.03,10.0,NNW,2.3,-,N/A,,Overcast,340,2013-11-05 09:17:00
1:18 AM,42.8,42.8,100,30.03,10.0,NNW,1.2,-,N/A,,Light Drizzle,340,2013-11-05 09:18:00
1:26 AM,42.8,42.8,100,30.03,9.0,NNW,3.5,-,N/A,Rain,Light Rain,340,2013-11-05 09:26:00
1:45 AM,44.6,42.8,93,30.03,10.0,North,2.3,-,N/A,,Overcast,10,2013-11-05 09:45:00
1:58 AM,43.9,43.5,99,30.05,10.0,NNE,2.3,-,0.02,,Overcast,20,2013-11-05 09:58:00
2:58 AM,44.1,43.9,99,30.06,10.0,NE,2.3,-,N/A,,Overcast,40,2013-11-05 10:58:00
3:05 AM,44.6,44.6,100,30.04,10.0,Calm,Calm,-,N/A,Rain,Light Rain,0,2013-11-05 11:05:00
3:15 AM,44.6,44.6,100,30.03,10.0,ENE,2.3,-,N/A,,Overcast,60,2013-11-05 11:15:00
3:27 AM,44.6,44.6,100,30.03,10.0,ENE,2.3,-,N/A,Rain,Light Rain,60,2013-11-05 11:27:00
3:38 AM,44.6,44.6,100,30.03,10.0,NE,1.2,-,N/A,,Overcast,50,2013-11-05 11:38:00
3:58 AM,44.1,43.9,99,30.05,10.0,East,2.3,-,0.00,,Overcast,90,2013-11-05 11:58:00
4:58 AM,44.2,44.1,99,30.05,10.0,Calm,Calm,-,N/A,,Overcast,0,2013-11-05 12:58:00
5:00 AM,44.6,44.6,100,30.03,10.0,SE,1.2,-,N/A,,Light Drizzle,130,2013-11-05 13:00:00
5:14 AM,44.6,44.6,100,30.02,10.0,SE,2.3,-,N/A,,Overcast,130,2013-11-05 13:14:00
5:58 AM,44.4,44.4,100,30.04,10.0,WSW,1.2,-,0.01,,Overcast,240,2013-11-05 13:58:00
6:58 AM,45.0,44.8,99,30.05,10.0,Calm,Calm,-,N/A,,Overcast,0,2013-11-05 14:58:00
7:58 AM,46.0,46.0,100,30.06,10.0,South,3.5,-,N/A,,Overcast,190,2013-11-05 15:58:00
8:48 AM,50.0,50.0,100,30.07,4.0,SSW,8.1,-,N/A,,Light Drizzle,210,2013-11-05 16:48:00
8:49 AM,50.0,50.0,100,30.07,4.0,SSW,8.1,-,N/A,,Light Drizzle,210,2013-11-05 16:49:00
8:58 AM,49.8,49.6,99,30.09,4.0,South,11.5,-,0.01,,Light Drizzle,190,2013-11-05 16:58:00
8:59 AM,50.0,50.0,100,30.07,4.0,SSW,12.7,-,N/A,,Overcast,200,2013-11-05 16:59:00
9:03 AM,50.0,50.0,100,30.07,4.0,SSW,11.5,-,N/A,Rain,Light Rain,200,2013-11-05 17:03:00
9:20 AM,50.0,50.0,100,30.07,10.0,SSW,10.4,-,N/A,,Overcast,200,2013-11-05 17:20:00
9:25 AM,50.0,50.0,100,30.08,10.0,SSW,11.5,-,N/A,,Overcast,210,2013-11-05 17:25:00
9:30 AM,50.0,50.0,100,30.08,10.0,SSW,12.7,-,N/A,,Overcast,210,2013-11-05 17:30:00
9:43 AM,50.0,50.0,100,30.08,10.0,SSW,12.7,-,N/A,,Overcast,210,2013-11-05 17:43:00
9:46 AM,50.0,50.0,100,30.08,7.0,SSW,12.7,-,N/A,Rain,Light Rain,210,2013-11-05 17:46:00
9:49 AM,50.0,50.0,100,30.08,5.0,SSW,13.8,-,N/A,Rain,Light Rain,210,2013-11-05 17:49:00
9:54 AM,50.0,50.0,100,30.08,3.0,SSW,13.8,20.7,N/A,Rain,Light Rain,210,2013-11-05 17:54:00
9:58 AM,50.2,50.0,99,30.10,3.0,SSW,15.0,-,0.00,Rain,Light Rain,200,2013-11-05 17:58:00
9:59 AM,50.0,50.0,100,30.08,3.0,SSW,16.1,21.9,N/A,,Overcast,200,2013-11-05 17:59:00
10:00 AM,50.0,50.0,100,30.08,3.0,SSW,16.1,21.9,N/A,Rain,Light Rain,200,2013-11-05 18:00:00
10:11 AM,50.0,50.0,100,30.08,8.0,SSW,12.7,-,N/A,,Overcast,200,2013-11-05 18:11:00
10:41 AM,51.8,51.8,100,30.09,10.0,SSW,12.7,-,N/A,,Overcast,210,2013-11-05 18:41:00
10:58 AM,52.2,52.0,99,30.11,10.0,SSW,12.7,-,0.01,,Overcast,210,2013-11-05 18:58:00
11:05 AM,51.8,51.8,100,30.09,10.0,SSW,11.5,-,N/A,Rain,Light Rain,210,2013-11-05 19:05:00
11:14 AM,51.8,51.8,100,30.09,10.0,SSW,10.4,-,N/A,,Overcast,210,2013-11-05 19:14:00
11:19 AM,51.8,51.8,100,30.09,10.0,SSW,11.5,-,N/A,,Overcast,210,2013-11-05 19:19:00
11:24 AM,51.8,51.8,100,30.09,10.0,SW,10.4,-,N/A,,Overcast,220,2013-11-05 19:24:00
11:29 AM,51.8,51.8,100,30.09,10.0,SSW,10.4,-,N/A,,Overcast,200,2013-11-05 19:29:00
11:34 AM,51.8,51.8,100,30.09,10.0,SSW,10.4,-,N/A,,Overcast,210,2013-11-05 19:34:00
11:44 AM,51.8,51.8,100,30.09,10.0,SSW,11.5,-,N/A,,Overcast,200,2013-11-05 19:44:00
11:54 AM,51.8,51.8,100,30.09,10.0,South,12.7,-,N/A,,Overcast,190,2013-11-05 19:54:00
11:58 AM,52.2,51.6,98,30.11,10.0,SSW,11.5,-,0.00,,Overcast,200,2013-11-05 19:58:00
12:03 PM,51.8,51.8,100,30.09,10.0,SSW,11.5,-,N/A,,Overcast,200,2013-11-05 20:03:00
12:08 PM,51.8,51.8,100,30.09,10.0,South,12.7,-,N/A,,Overcast,190,2013-11-05 20:08:00
12:18 PM,51.8,51.8,100,30.09,10.0,SSW,11.5,-,N/A,,Overcast,200,2013-11-05 20:18:00
12:58 PM,52.0,50.5,95,30.11,10.0,South,12.7,-,N/A,,Overcast,190,2013-11-05 20:58:00
1:08 PM,51.8,50.0,94,30.09,10.0,South,10.4,-,N/A,,Overcast,190,2013-11-05 21:08:00
1:58 PM,52.3,49.5,90,30.12,10.0,SSW,10.4,-,N/A,,Overcast,200,2013-11-05 21:58:00
2:58 PM,53.6,47.5,80,30.13,10.0,SW,10.4,-,N/A,,Scattered Clouds,220,2013-11-05 22:58:00
3:58 PM,52.5,45.5,77,30.16,10.0,SSW,6.9,-,N/A,,Mostly Cloudy,210,2013-11-05 23:58:00
4:58 PM,50.7,44.6,80,30.17,10.0,SW,11.5,-,N/A,,Scattered Clouds,220,2013-11-06 00:58:00
5:58 PM,50.2,44.2,80,30.20,10.0,SSW,10.4,-,N/A,,Mostly Cloudy,210,2013-11-06 01:58:00
6:58 PM,48.9,45.5,88,30.22,10.0,SW,6.9,-,N/A,,Mostly Cloudy,220,2013-11-06 02:58:00
7:58 PM,47.7,45.3,92,30.23,10.0,South,4.6,-,N/A,,Overcast,170,2013-11-06 03:58:00
8:58 PM,45.1,44.8,99,30.24,10.0,South,5.8,-,N/A,,Mostly Cloudy,180,2013-11-06 04:58:00
9:58 PM,40.6,40.3,99,30.25,10.0,SE,6.9,-,N/A,,Mostly Cloudy,140,2013-11-06 05:58:00
10:58 PM,42.6,42.4,99,30.26,10.0,East,1.2,-,N/A,,Mostly Cloudy,80,2013-11-06 06:58:00
11:48 PM,41.0,41.0,100,30.26,10.0,WSW,2.3,-,N/A,,Overcast,250,2013-11-06 07:48:00
11:58 PM,40.5,40.3,99,30.28,10.0,South,2.3,-,N/A,,Overcast,170,2013-11-06 07:58:00